TimeCDT,TemperatureF,Dew PointF,Humidity,Sea Level PressureIn,VisibilityMPH,Wind Direction,Wind SpeedMPH,Gust SpeedMPH,PrecipitationIn,Events,Conditions,WindDirDegrees,DateUTC
12:35 AM,53.6,53.6,100,30.22,4.0,Calm,Calm,-,N/A,,Clear,0,2013-10-14 05:35:00
12:55 AM,51.8,51.8,100,30.22,0.8,Calm,Calm,-,N/A,,Unknown,0,2013-10-14 05:55:00
1:15 AM,50.0,48.2,94,30.22,2.5,Calm,Calm,-,N/A,,Clear,0,2013-10-14 06:15:00
1:35 AM,51.8,51.8,100,30.22,1.2,Calm,Calm,-,N/A,,Clear,0,2013-10-14 06:35:00
1:55 AM,51.8,50.0,94,30.23,2.0,Calm,Calm,-,N/A,,Clear,0,2013-10-14 06:55:00
2:15 AM,50.0,50.0,100,30.23,0.5,Calm,Calm,-,N/A,,Unknown,0,2013-10-14 07:15:00
2:35 AM,51.8,50.0,94,30.22,1.0,Calm,Calm,-,N/A,,Unknown,0,2013-10-14 07:35:00
2:55 AM,51.8,50.0,94,30.23,5.0,Calm,Calm,-,N/A,,Clear,0,2013-10-14 07:55:00
3:15 AM,50.0,50.0,100,30.23,2.0,Calm,Calm,-,N/A,,Clear,0,2013-10-14 08:15:00
3:35 AM,50.0,50.0,100,30.24,0.2,Calm,Calm,-,N/A,,Unknown,0,2013-10-14 08:35:00
3:55 AM,50.0,48.2,94,30.24,1.2,Calm,Calm,-,N/A,,Clear,0,2013-10-14 08:55:00
4:15 AM,51.8,50.0,94,30.24,4.0,Calm,Calm,-,N/A,,Clear,0,2013-10-14 09:15:00
4:35 AM,51.8,51.8,100,30.24,1.5,Calm,Calm,-,N/A,,Clear,0,2013-10-14 09:35:00
4:55 AM,53.6,51.8,94,30.24,1.0,ENE,3.5,-,N/A,,Mostly Cloudy,60,2013-10-14 09:55:00
5:15 AM,53.6,51.8,94,30.24,0.8,Calm,Calm,-,N/A,,Overcast,0,2013-10-14 10:15:00
5:35 AM,53.6,51.8,94,30.24,1.2,Calm,Calm,-,N/A,,Overcast,0,2013-10-14 10:35:00
5:55 AM,53.6,53.6,100,30.24,0.2,Calm,Calm,-,N/A,,Overcast,0,2013-10-14 10:55:00
6:15 AM,55.4,53.6,94,30.24,0.2,Calm,Calm,-,N/A,,Overcast,0,2013-10-14 11:15:00
6:35 AM,53.6,53.6,100,30.24,0.2,Calm,Calm,-,N/A,,Overcast,0,2013-10-14 11:35:00
6:55 AM,53.6,53.6,100,30.24,0.2,Calm,Calm,-,N/A,,Overcast,0,2013-10-14 11:55:00
7:15 AM,55.4,53.6,94,30.24,0.2,Calm,Calm,-,N/A,,Overcast,0,2013-10-14 12:15:00
7:35 AM,55.4,53.6,94,30.24,0.2,Calm,Calm,-,N/A,,Overcast,0,2013-10-14 12:35:00
7:55 AM,55.4,55.4,100,30.25,0.2,Calm,Calm,-,N/A,,Overcast,0,2013-10-14 12:55:00
8:15 AM,57.2,57.2,100,30.25,0.2,Calm,Calm,-,N/A,,Overcast,0,2013-10-14 13:15:00
8:35 AM,57.2,57.2,100,30.26,0.2,Calm,Calm,-,N/A,,Overcast,0,2013-10-14 13:35:00
8:55 AM,59.0,59.0,100,30.26,0.2,Calm,Calm,-,N/A,,Overcast,0,2013-10-14 13:55:00
9:15 AM,60.8,59.0,94,30.26,2.0,Calm,Calm,-,N/A,,Overcast,0,2013-10-14 14:15:00
9:35 AM,62.6,60.8,94,30.25,8.0,Calm,Calm,-,N/A,,Mostly Cloudy,0,2013-10-14 14:35:00
9:55 AM,64.4,60.8,88,30.25,9.0,NNE,3.5,-,N/A,,Scattered Clouds,20,2013-10-14 14:55:00
10:15 AM,66.2,60.8,83,30.25,10.0,Calm,Calm,-,N/A,,Clear,0,2013-10-14 15:15:00
10:35 AM,68.0,60.8,78,30.25,10.0,NNE,3.5,-,N/A,,Clear,30,2013-10-14 15:35:00
10:55 AM,71.6,60.8,69,30.23,10.0,Calm,Calm,-,N/A,,Clear,0,2013-10-14 15:55:00
11:15 AM,71.6,60.8,69,30.23,10.0,Calm,Calm,-,N/A,,Clear,0,2013-10-14 16:15:00
11:35 AM,71.6,60.8,69,30.23,10.0,Calm,Calm,-,N/A,,Clear,0,2013-10-14 16:35:00
11:55 AM,73.4,60.8,65,30.22,10.0,Variable,3.5,-,N/A,,Partly Cloudy,0,2013-10-14 16:55:00
12:15 PM,71.6,60.8,69,30.22,10.0,Calm,Calm,-,N/A,,Scattered Clouds,0,2013-10-14 17:15:00
12:35 PM,73.4,60.8,65,30.20,10.0,Variable,4.6,-,N/A,,Partly Cloudy,0,2013-10-14 17:35:00
12:55 PM,75.2,62.6,65,30.19,10.0,NNE,8.1,-,N/A,,Scattered Clouds,20,2013-10-14 17:55:00
1:15 PM,75.2,62.6,65,30.18,10.0,North,9.2,-,N/A,,Mostly Cloudy,350,2013-10-14 18:15:00
1:35 PM,75.2,62.6,65,30.17,10.0,North,5.8,-,N/A,,Scattered Clouds,10,2013-10-14 18:35:00
1:55 PM,73.4,60.8,65,30.16,10.0,Variable,5.8,-,N/A,,Partly Cloudy,0,2013-10-14 18:55:00
2:15 PM,73.4,60.8,65,30.15,10.0,NE,8.1,-,N/A,,Scattered Clouds,50,2013-10-14 19:15:00
2:35 PM,75.2,62.6,65,30.15,10.0,Variable,6.9,-,N/A,,Partly Cloudy,0,2013-10-14 19:35:00
2:55 PM,73.4,62.6,69,30.14,10.0,Variable,6.9,-,N/A,,Clear,0,2013-10-14 19:55:00
3:15 PM,73.4,62.6,69,30.15,10.0,Variable,5.8,-,N/A,,Clear,0,2013-10-14 20:15:00
3:35 PM,73.4,60.8,65,30.15,10.0,Variable,6.9,-,N/A,,Clear,0,2013-10-14 20:35:00
3:55 PM,73.4,60.8,65,30.14,10.0,NNE,10.4,-,N/A,,Clear,30,2013-10-14 20:55:00
4:15 PM,71.6,60.8,69,30.15,10.0,NNE,8.1,-,N/A,,Clear,20,2013-10-14 21:15:00
4:35 PM,71.6,60.8,69,30.15,10.0,NNE,8.1,-,N/A,,Partly Cloudy,20,2013-10-14 21:35:00
4:55 PM,69.8,60.8,73,30.15,10.0,NE,6.9,-,N/A,,Partly Cloudy,40,2013-10-14 21:55:00
5:15 PM,69.8,60.8,73,30.16,10.0,NE,5.8,-,N/A,,Clear,40,2013-10-14 22:15:00
5:35 PM,68.0,60.8,78,30.15,10.0,NE,5.8,-,N/A,,Clear,40,2013-10-14 22:35:00
5:55 PM,66.2,60.8,83,30.16,10.0,NNE,5.8,-,N/A,,Clear,30,2013-10-14 22:55:00
6:15 PM,64.4,60.8,88,30.16,10.0,NNE,4.6,-,N/A,,Clear,30,2013-10-14 23:15:00
6:35 PM,64.4,60.8,88,30.15,10.0,NE,5.8,-,N/A,,Clear,40,2013-10-14 23:35:00
6:55 PM,62.6,59.0,88,30.15,10.0,NNE,3.5,-,N/A,,Clear,30,2013-10-14 23:55:00
7:15 PM,62.6,59.0,88,30.14,10.0,Variable,3.5,-,N/A,,Clear,0,2013-10-15 00:15:00
7:35 PM,62.6,59.0,88,30.14,10.0,Calm,Calm,-,N/A,,Clear,0,2013-10-15 00:35:00
7:55 PM,60.8,59.0,94,30.14,10.0,Calm,Calm,-,N/A,,Clear,0,2013-10-15 00:55:00
8:15 PM,60.8,57.2,88,30.14,10.0,Calm,Calm,-,N/A,,Clear,0,2013-10-15 01:15:00
8:35 PM,59.0,57.2,94,30.14,9.0,Calm,Calm,-,N/A,,Clear,0,2013-10-15 01:35:00
8:55 PM,57.2,57.2,100,30.14,6.0,Calm,Calm,-,N/A,,Clear,0,2013-10-15 01:55:00
9:15 PM,55.4,55.4,100,30.15,6.0,Calm,Calm,-,N/A,,Clear,0,2013-10-15 02:15:00
9:35 PM,55.4,53.6,94,30.15,5.0,Calm,Calm,-,N/A,,Clear,0,2013-10-15 02:35:00
9:55 PM,55.4,53.6,94,30.16,5.0,Calm,Calm,-,N/A,,Clear,0,2013-10-15 02:55:00
10:15 PM,53.6,53.6,100,30.16,0.8,Calm,Calm,-,N/A,,Unknown,0,2013-10-15 03:15:00
10:35 PM,55.4,55.4,100,30.16,1.2,Calm,Calm,-,N/A,,Clear,0,2013-10-15 03:35:00
10:55 PM,55.4,55.4,100,30.16,4.0,Calm,Calm,-,N/A,,Clear,0,2013-10-15 03:55:00
11:15 PM,55.4,55.4,100,30.16,6.0,Calm,Calm,-,N/A,,Mostly Cloudy,0,2013-10-15 04:15:00
11:35 PM,57.2,57.2,100,30.16,5.0,Calm,Calm,-,N/A,,Mostly Cloudy,0,2013-10-15 04:35:00
11:55 PM,57.2,57.2,100,30.14,6.0,Calm,Calm,-,N/A,,Scattered Clouds,0,2013-10-15 04:55:00